This is the latest recevied weather packets stored in our database for station/object N5JXS. If no packets are shown the sender has not sent any weather packets the latest 10 day(s).
| Time | Temp. | Humidity | Pressure | Rain* | Wind** | Luminosity | Snow |
|---|---|---|---|---|---|---|---|
| 1778171038 | 11.11° C | 36% | 1021.6 hPa | 4.32 mm | - | 548 W/m² | - |
| 1778170736 | 10.56° C | 37% | 1021.7 hPa | 3.05 mm | - | 384 W/m² | - |
| 1778170432 | 10.56° C | 36% | 1021.7 hPa | 3.05 mm | - | 396 W/m² | - |
| 1778170129 | 10.56° C | 35% | 1021.7 hPa | 0 mm | - | 167 W/m² | - |
| 1778169824 | 10° C | 35% | 1021.9 hPa | 0 mm | - | 92 W/m² | - |
| 1778169521 | 10° C | 37% | 1021.7 hPa | 0 mm | - | 63 W/m² | - |
| 1778169217 | 10° C | 39% | 1021.7 hPa | 0 mm | - | 46 W/m² | - |
| 1778168914 | 10° C | 42% | 1022 hPa | 0 mm | - | 69 W/m² | - |
| 1778168611 | 9.44° C | 41% | 1022.1 hPa | 0 mm | - | 197 W/m² | - |
| 1778168308 | 9.44° C | 41% | 1021.9 hPa | 0 mm | - | 39 W/m² | - |
| 1778168005 | 8.89° C | 43% | 1021.9 hPa | 0 mm | - | 48 W/m² | - |
| 1778167701 | 8.89° C | 43% | 1021.9 hPa | 0 mm | - | 60 W/m² | - |
| 1778167397 | 8.89° C | 44% | 1021.9 hPa | 0 mm | - | 60 W/m² | - |
| 1778167093 | 8.33° C | 45% | 1022 hPa | 0 mm | - | 68 W/m² | - |
| 1778166790 | 8.33° C | 47% | 1022 hPa | 0 mm | - | 41 W/m² | - |
| 1778166487 | 7.78° C | 51% | 1022 hPa | 0 mm | - | 30 W/m² | - |
| 1778166183 | 7.22° C | 48% | 1022.1 hPa | 0 mm | - | 29 W/m² | - |
| 1778165880 | 7.22° C | 50% | 1021.9 hPa | 0 mm | - | 197 W/m² | - |
| 1778165576 | 6.67° C | 51% | 1022 hPa | 0 mm | - | 31 W/m² | - |
| 1778165273 | 6.11° C | 51% | 1021.9 hPa | 0 mm | - | 33 W/m² | - |
| 1778164971 | 5.56° C | 53% | 1022.1 hPa | 0 mm | - | 32 W/m² | - |
| 1778164667 | 5.56° C | 55% | 1022.2 hPa | 0 mm | - | 36 W/m² | - |
| 1778164364 | 5° C | 53% | 1022 hPa | 0 mm | - | 31 W/m² | - |
| 1778164060 | 5° C | 54% | 1022.1 hPa | 0 mm | - | 29 W/m² | - |
| 1778163757 | 5° C | 55% | 1021.9 hPa | 0 mm | - | 27 W/m² | - |
* Rain latest hour (hover to see other rain measurements)
** Current wind speed in m/s (hover to see current wind gust speed)